Weather History for Truckee-Tahoe, CA

Change the Weather History Date:

Thursday, October 20, 2011

  Actual Average Record
Temperature  
Mean Temperature 48 °F -  
Max Temperature 68 °F 63 °F 78 °F (1988)
Min Temperature 28 °F 27 °F 16 °F (1949)
Degree Days  
Heating Degree Days 17    
Moisture  
Dew Point 31 °F    
Average Humidity 78    
Maximum Humidity 100    
Minimum Humidity 20    
Precipitation  
Precipitation 0.00 in - - ()
Sea Level Pressure  
Sea Level Pressure 30.20 in    
Wind  
Wind Speed 1 mph (SW)    
Max Wind Speed 15 mph    
Max Gust Speed 17 mph    
Visibility 5 miles    
Events Fog    
Averages and records for this station are not official NWS values.
T = Trace of Precipitation, MM = Missing Value Source: NWS Daily Summary

Daily Weather History Graph

Daily Weather History Graph

Search for Another Location

Airport:

Trip Planner

Search our weather history database for the weather conditions in past years. The results will help you decide how hot, cold, wet, or windy it might be!

Date:

Astronomy

Oct. 20, 2011 Rise Set
Actual Time 7:15 AM PDT 6:14 PM PDT
Civil Twilight 6:48 AM PDT 6:41 PM PDT
Nautical Twilight 6:16 AM PDT 7:13 PM PDT
Astronomical Twilight 5:45 AM PDT 7:44 PM PDT
Moon 12:08 AM PDT 2:24 PM PDT
Length of Visible Light 11h 53m
Length of Day
10h 59m
Last Quarter, 43% of the Moon is Illuminated
Oct 20
Last Quarter
Oct 26
New
Nov 2
First Quarter
Nov 10
Full
Nov 18
Last Quarter

Hourly Weather History & Observations

Time (PDT) Temp. Windchill Dew Point Humidity Pressure Visibility Wind Dir Wind Speed Gust Speed Precip Events Conditions
12:15 AM 35.6 °F - 35.6 °F 100% 30.20 in 5.0 mi Calm Calm - N/A   Clear
12:35 AM 33.8 °F - 32.0 °F 93% 30.20 in 0.2 mi Calm Calm - N/A Fog Fog
12:55 AM 32.0 °F 28.7 °F 32.0 °F 100% 30.20 in 0.2 mi South 3.5 mph - N/A Fog Fog
1:15 AM 32.0 °F - 32.0 °F 100% 30.20 in 0.2 mi Calm Calm - N/A Fog Light Freezing Fog
1:35 AM 35.6 °F - 35.6 °F 100% 30.20 in 0.2 mi Calm Calm - N/A Fog Fog
1:55 AM 32.0 °F - 32.0 °F 100% 30.20 in 0.2 mi Calm Calm - N/A Fog Fog
2:15 AM 32.0 °F - 32.0 °F 100% 30.20 in 0.2 mi Calm Calm - N/A Fog Light Freezing Fog
2:35 AM 32.0 °F - 32.0 °F 100% 30.20 in 0.2 mi Calm Calm - N/A Fog Light Freezing Fog
2:55 AM 32.0 °F - 32.0 °F 100% 30.20 in 0.2 mi Calm Calm - N/A Fog Light Freezing Fog
3:15 AM 32.0 °F - 32.0 °F 100% 30.19 in 0.2 mi Calm Calm - N/A Fog Light Freezing Fog
3:35 AM 30.2 °F - 28.4 °F 93% 30.19 in 0.2 mi Calm Calm - N/A Fog Light Freezing Fog
3:55 AM 30.2 °F - 28.4 °F 93% 30.18 in 0.2 mi Calm Calm - N/A Fog Light Freezing Fog
4:15 AM 28.4 °F - 28.4 °F 100% 30.19 in 0.2 mi Calm Calm - N/A Fog Light Freezing Fog
4:35 AM 28.4 °F - 28.4 °F 100% 30.19 in 0.2 mi Calm Calm - N/A Fog Light Freezing Fog
4:55 AM 28.4 °F - 28.4 °F 100% 30.19 in 0.2 mi Calm Calm - N/A Fog Light Freezing Fog
5:15 AM 30.2 °F - 30.2 °F 100% 30.19 in 0.2 mi Calm Calm - N/A Fog Light Freezing Fog
5:35 AM 30.2 °F - 28.4 °F 93% 30.19 in 0.2 mi Calm Calm - N/A Fog Light Freezing Fog
5:55 AM 28.4 °F - 26.6 °F 93% 30.20 in 0.2 mi Calm Calm - N/A Fog Light Freezing Fog
6:15 AM 28.4 °F - 28.4 °F 100% 30.19 in 0.2 mi Calm Calm - N/A Fog Light Freezing Fog
6:35 AM 30.2 °F - 28.4 °F 93% 30.19 in 0.2 mi Calm Calm - N/A Fog Light Freezing Fog
6:50 AM 28.4 °F - 28.4 °F 100% 30.19 in 0.2 mi Calm Calm - N/A Fog Light Freezing Fog
7:55 AM 30.2 °F - 28.4 °F 93% 30.21 in 0.2 mi Calm Calm - N/A Fog Light Freezing Fog
8:45 AM 30.2 °F - 30.2 °F 100% 30.22 in 0.2 mi Calm Calm - N/A Fog Light Freezing Fog
9:50 AM 33.8 °F - 33.8 °F 100% 30.22 in 0.2 mi Calm Calm - N/A Fog Fog
10:45 AM 41.0 °F - 41.0 °F 100% 30.21 in 10.0 mi Calm Calm - N/A   Clear
11:45 AM 53.6 °F - 39.2 °F 58% 30.20 in 10.0 mi Calm Calm - N/A   Clear
12:45 PM 64.4 °F - 37.4 °F 37% 30.17 in 10.0 mi NW 5.8 mph - N/A   Scattered Clouds
1:45 PM 66.2 °F - 32.0 °F 28% 30.15 in 10.0 mi Calm Calm - N/A   Scattered Clouds
2:45 PM 68.0 °F - 24.8 °F 20% 30.14 in 10.0 mi SSW 15.0 mph - N/A   Scattered Clouds
3:45 PM 66.2 °F - 26.6 °F 23% 30.15 in 10.0 mi WSW 11.5 mph 17.3 mph N/A   Scattered Clouds
4:45 PM 64.4 °F - 32.0 °F 30% 30.16 in 10.0 mi West 10.4 mph 17.3 mph N/A   Scattered Clouds
5:45 PM 59.0 °F - 32.0 °F 36% 30.17 in 10.0 mi West 5.8 mph - N/A   Scattered Clouds
5:55 PM 59.0 °F - 32.0 °F 36% 30.17 in 10.0 mi WNW 4.6 mph - N/A   Clear
6:15 PM 57.2 °F - 32.0 °F 38% 30.17 in 10.0 mi West 5.8 mph - N/A   Clear
6:35 PM 53.6 °F - 30.2 °F 41% 30.18 in 10.0 mi WSW 5.8 mph - N/A   Clear
6:55 PM 48.2 °F - 32.0 °F 54% 30.19 in 10.0 mi Calm Calm - N/A   Clear
7:15 PM 48.2 °F - 32.0 °F 54% 30.20 in 10.0 mi SSE 5.8 mph - N/A   Clear
7:35 PM 42.8 °F 41.1 °F 32.0 °F 66% 30.20 in 10.0 mi SSW 3.5 mph - N/A   Clear
7:55 PM 44.6 °F 41.4 °F 32.0 °F 61% 30.20 in 10.0 mi SSW 5.8 mph - N/A   Clear
8:15 PM 41.0 °F - 32.0 °F 70% 30.21 in 10.0 mi Calm Calm - N/A   Clear
8:35 PM 39.2 °F 37.0 °F 30.2 °F 70% 30.21 in 10.0 mi West 3.5 mph - N/A   Clear
8:55 PM 39.2 °F 37.0 °F 30.2 °F 70% 30.21 in 10.0 mi SW 3.5 mph - N/A   Clear
9:15 PM 39.2 °F 37.0 °F 32.0 °F 75% 30.22 in 10.0 mi SE 3.5 mph - N/A   Clear
9:35 PM 35.6 °F 32.8 °F 28.4 °F 75% 30.22 in 10.0 mi South 3.5 mph - N/A   Clear
9:55 PM 41.0 °F - 32.0 °F 70% 30.23 in 10.0 mi Calm Calm - N/A   Clear
10:15 PM 37.4 °F - 30.2 °F 75% 30.22 in 10.0 mi Calm Calm - N/A   Clear
10:35 PM 35.6 °F 32.8 °F 30.2 °F 81% 30.22 in 7.0 mi WNW 3.5 mph - N/A   Clear
11:15 PM 32.0 °F - 28.4 °F 87% 30.25 in 10.0 mi Calm Calm - N/A   Clear
11:35 PM 32.0 °F 28.7 °F 28.4 °F 87% 30.25 in 10.0 mi South 3.5 mph - N/A   Clear
11:55 PM 33.8 °F - 30.2 °F 87% 30.25 in 10.0 mi Calm Calm - N/A   Clear